owner,sensor,date,latitude,longitude,vertical_datum,sea_water_practical_salinity,qcFlag 
SCCF RECON,ioos:station:SCCF:18:1,2015-06-01T00:00:00Z,26.6955,-81.8138,1.56,0.57,1111122 
SCCF RECON,ioos:station:SCCF:18:1,2015-06-01T01:00:00Z,26.6955,-81.8138,1.541,0.53,1111122 
SCCF RECON,ioos:station:SCCF:18:1,2015-06-01T02:00:00Z,26.6955,-81.8138,1.53,0.53,1111122 
SCCF RECON,ioos:station:SCCF:18:1,2015-06-01T03:00:00Z,26.6955,-81.8138,1.5,0.54,1111122 
SCCF RECON,ioos:station:SCCF:18:1,2015-06-01T04:00:00Z,26.6955,-81.8138,1.474,0.58,1111122 
SCCF RECON,ioos:station:SCCF:18:1,2015-06-01T05:00:00Z,26.6955,-81.8138,1.441,0.64,1111122 
SCCF RECON,ioos:station:SCCF:18:1,2015-06-01T06:00:00Z,26.6955,-81.8138,1.41,0.89,1111122 
SCCF RECON,ioos:station:SCCF:18:1,2015-06-01T07:00:00Z,26.6955,-81.8138,1.38,0.91,1111122 
SCCF RECON,ioos:station:SCCF:18:1,2015-06-01T08:00:00Z,26.6955,-81.8138,1.39,0.68,1111122 
SCCF RECON,ioos:station:SCCF:18:1,2015-06-01T09:00:00Z,26.6955,-81.8138,1.41,0.77,1111122 
SCCF RECON,ioos:station:SCCF:18:1,2015-06-01T10:00:00Z,26.6955,-81.8138,1.401,0.71,1111122 
SCCF RECON,ioos:station:SCCF:18:1,2015-06-01T11:00:00Z,26.6955,-81.8138,1.41,0.64,1111122 
SCCF RECON,ioos:station:SCCF:18:1,2015-06-01T12:00:00Z,26.6955,-81.8138,1.4,0.56,1111122 
SCCF RECON,ioos:station:SCCF:18:1,2015-06-01T13:00:00Z,26.6955,-81.8138,1.43,0.56,1111122 
SCCF RECON,ioos:station:SCCF:18:1,2015-06-01T14:00:00Z,26.6955,-81.8138,1.44,0.55,1111122 
SCCF RECON,ioos:station:SCCF:18:1,2015-06-01T15:00:00Z,26.6955,-81.8138,1.433,0.76,1111122 
SCCF RECON,ioos:station:SCCF:18:1,2015-06-01T16:00:00Z,26.6955,-81.8138,1.43,0.82,1111122 
SCCF RECON,ioos:station:SCCF:18:1,2015-06-01T17:00:00Z,26.6955,-81.8138,1.44,0.96,1111122 
SCCF RECON,ioos:station:SCCF:18:1,2015-06-01T18:00:00Z,26.6955,-81.8138,1.45,1.05,1111122 
SCCF RECON,ioos:station:SCCF:18:1,2015-06-01T19:00:00Z,26.6955,-81.8138,1.49,1.17,1111122 
SCCF RECON,ioos:station:SCCF:18:1,2015-06-01T20:00:00Z,26.6955,-81.8138,1.52,1.21,1111122 
SCCF RECON,ioos:station:SCCF:18:1,2015-06-01T21:00:00Z,26.6955,-81.8138,1.54,1.26,1111122 
SCCF RECON,ioos:station:SCCF:18:1,2015-06-01T22:00:00Z,26.6955,-81.8138,1.59,0.76,1111122 
SCCF RECON,ioos:station:SCCF:18:1,2015-06-01T23:00:00Z,26.6955,-81.8138,1.61,0.65,1111122 
SCCF RECON,ioos:station:SCCF:18:1,2015-06-02T00:00:00Z,26.6955,-81.8138,1.607,0.63,1111122 
SCCF RECON,ioos:station:SCCF:18:1,2015-06-02T01:00:00Z,26.6955,-81.8138,1.59,0.58,1111122 
SCCF RECON,ioos:station:SCCF:18:1,2015-06-02T02:00:00Z,26.6955,-81.8138,1.567,0.61,1111122 
SCCF RECON,ioos:station:SCCF:18:1,2015-06-02T03:00:00Z,26.6955,-81.8138,1.53,0.62,1111122 
SCCF RECON,ioos:station:SCCF:18:1,2015-06-02T04:00:00Z,26.6955,-81.8138,1.51,0.6,1111122 
SCCF RECON,ioos:station:SCCF:18:1,2015-06-02T05:00:00Z,26.6955,-81.8138,1.48,0.59,1111122 
SCCF RECON,ioos:station:SCCF:18:1,2015-06-02T06:00:00Z,26.6955,-81.8138,1.44,0.8,1111122 
SCCF RECON,ioos:station:SCCF:18:1,2015-06-02T07:00:00Z,26.6955,-81.8138,1.394,0.65,1111122 
SCCF RECON,ioos:station:SCCF:18:1,2015-06-02T08:00:00Z,26.6955,-81.8138,1.4,0.71,1111122 
SCCF RECON,ioos:station:SCCF:18:1,2015-06-02T09:00:00Z,26.6955,-81.8138,1.41,0.77,1111122 
SCCF RECON,ioos:station:SCCF:18:1,2015-06-02T10:00:00Z,26.6955,-81.8138,1.41,0.76,1111122 
SCCF RECON,ioos:station:SCCF:18:1,2015-06-02T11:00:00Z,26.6955,-81.8138,1.419,0.8,1111122 
SCCF RECON,ioos:station:SCCF:18:1,2015-06-02T12:00:00Z,26.6955,-81.8138,1.42,0.75,1111122 
SCCF RECON,ioos:station:SCCF:18:1,2015-06-02T13:00:00Z,26.6955,-81.8138,1.41,0.58,1111122 
SCCF RECON,ioos:station:SCCF:18:1,2015-06-02T14:00:00Z,26.6955,-81.8138,1.44,0.59,1111122 
SCCF RECON,ioos:station:SCCF:18:1,2015-06-02T15:00:00Z,26.6955,-81.8138,1.45,0.59,1111122 
SCCF RECON,ioos:station:SCCF:18:1,2015-06-02T16:00:00Z,26.6955,-81.8138,1.43,0.87,1111122 
SCCF RECON,ioos:station:SCCF:18:1,2015-06-02T17:00:00Z,26.6955,-81.8138,1.42,0.86,1111122 
SCCF RECON,ioos:station:SCCF:18:1,2015-06-02T18:00:00Z,26.6955,-81.8138,1.43,1.01,1111122 
SCCF RECON,ioos:station:SCCF:18:1,2015-06-02T19:00:00Z,26.6955,-81.8138,1.43,1.03,1111122 
SCCF RECON,ioos:station:SCCF:18:1,2015-06-02T20:00:00Z,26.6955,-81.8138,1.46,1.16,1111122 
SCCF RECON,ioos:station:SCCF:18:1,2015-06-02T21:00:00Z,26.6955,-81.8138,1.5,1.26,1111122 
SCCF RECON,ioos:station:SCCF:18:1,2015-06-02T22:00:00Z,26.6955,-81.8138,1.53,1.02,1111122 
SCCF RECON,ioos:station:SCCF:18:1,2015-06-02T23:00:00Z,26.6955,-81.8138,1.57,0.73,1111122 
SCCF RECON,ioos:station:SCCF:18:1,2015-06-03T00:00:00Z,26.6955,-81.8138,1.58,0.69,1111122 
SCCF RECON,ioos:station:SCCF:18:1,2015-06-03T01:00:00Z,26.6955,-81.8138,1.57,0.61,1111122 
SCCF RECON,ioos:station:SCCF:18:1,2015-06-03T02:00:00Z,26.6955,-81.8138,1.56,0.63,1111122 
SCCF RECON,ioos:station:SCCF:18:1,2015-06-03T03:00:00Z,26.6955,-81.8138,1.53,0.65,1111122 
SCCF RECON,ioos:station:SCCF:18:1,2015-06-03T04:00:00Z,26.6955,-81.8138,1.52,0.64,1111122 
SCCF RECON,ioos:station:SCCF:18:1,2015-06-03T05:00:00Z,26.6955,-81.8138,1.52,0.64,1111122 
SCCF RECON,ioos:station:SCCF:18:1,2015-06-03T06:00:00Z,26.6955,-81.8138,1.502,0.67,1111122 
SCCF RECON,ioos:station:SCCF:18:1,2015-06-03T07:00:00Z,26.6955,-81.8138,1.46,0.84,1111122 
SCCF RECON,ioos:station:SCCF:18:1,2015-06-03T08:00:00Z,26.6955,-81.8138,1.43,0.75,1111122 
SCCF RECON,ioos:station:SCCF:18:1,2015-06-03T09:00:00Z,26.6955,-81.8138,1.41,0.74,1111122 
SCCF RECON,ioos:station:SCCF:18:1,2015-06-03T10:00:00Z,26.6955,-81.8138,1.42,0.76,1111122 
SCCF RECON,ioos:station:SCCF:18:1,2015-06-03T11:00:00Z,26.6955,-81.8138,1.42,0.78,1111122 
SCCF RECON,ioos:station:SCCF:18:1,2015-06-03T12:00:00Z,26.6955,-81.8138,1.42,0.63,1111122 
SCCF RECON,ioos:station:SCCF:18:1,2015-06-03T13:00:00Z,26.6955,-81.8138,1.43,0.63,1111122 
SCCF RECON,ioos:station:SCCF:18:1,2015-06-03T14:00:00Z,26.6955,-81.8138,1.455,0.62,1111122 
SCCF RECON,ioos:station:SCCF:18:1,2015-06-03T15:00:00Z,26.6955,-81.8138,1.471,0.63,1111122 
SCCF RECON,ioos:station:SCCF:18:1,2015-06-03T16:00:00Z,26.6955,-81.8138,1.47,0.7,1111122 
SCCF RECON,ioos:station:SCCF:18:1,2015-06-03T17:00:00Z,26.6955,-81.8138,1.44,0.9,1111122 
SCCF RECON,ioos:station:SCCF:18:1,2015-06-03T18:00:00Z,26.6955,-81.8138,1.49,0.82,1111122 
SCCF RECON,ioos:station:SCCF:18:1,2015-06-03T19:00:00Z,26.6955,-81.8138,1.48,0.96,1111122 
SCCF RECON,ioos:station:SCCF:18:1,2015-06-03T20:00:00Z,26.6955,-81.8138,1.5,1.05,1111122 
SCCF RECON,ioos:station:SCCF:18:1,2015-06-03T21:00:00Z,26.6955,-81.8138,1.51,1.0,1111122 
SCCF RECON,ioos:station:SCCF:18:1,2015-06-03T22:00:00Z,26.6955,-81.8138,1.567,0.85,1111122 
SCCF RECON,ioos:station:SCCF:18:1,2015-06-03T23:00:00Z,26.6955,-81.8138,1.578,0.72,1111122 
SCCF RECON,ioos:station:SCCF:18:1,2015-06-04T00:00:00Z,26.6955,-81.8138,1.57,0.71,1111122 
SCCF RECON,ioos:station:SCCF:18:1,2015-06-04T01:00:00Z,26.6955,-81.8138,1.564,0.72,1111122 
SCCF RECON,ioos:station:SCCF:18:1,2015-06-04T02:00:00Z,26.6955,-81.8138,1.559,0.69,1111122 
SCCF RECON,ioos:station:SCCF:18:1,2015-06-04T03:00:00Z,26.6955,-81.8138,1.54,0.66,1111122 
SCCF RECON,ioos:station:SCCF:18:1,2015-06-04T04:00:00Z,26.6955,-81.8138,1.51,0.63,1111122 
SCCF RECON,ioos:station:SCCF:18:1,2015-06-04T05:00:00Z,26.6955,-81.8138,1.473,0.63,1111122 
SCCF RECON,ioos:station:SCCF:18:1,2015-06-04T06:00:00Z,26.6955,-81.8138,1.46,0.68,1111122 
SCCF RECON,ioos:station:SCCF:18:1,2015-06-04T07:00:00Z,26.6955,-81.8138,1.43,0.87,1111122 
SCCF RECON,ioos:station:SCCF:18:1,2015-06-04T08:00:00Z,26.6955,-81.8138,1.41,0.87,1111122 
SCCF RECON,ioos:station:SCCF:18:1,2015-06-04T09:00:00Z,26.6955,-81.8138,1.4,0.79,1111122 
SCCF RECON,ioos:station:SCCF:18:1,2015-06-04T10:00:00Z,26.6955,-81.8138,1.38,0.8,1111122 
SCCF RECON,ioos:station:SCCF:18:1,2015-06-04T11:00:00Z,26.6955,-81.8138,1.385,0.82,1111122 
SCCF RECON,ioos:station:SCCF:18:1,2015-06-04T12:00:00Z,26.6955,-81.8138,1.4,0.79,1111122 
SCCF RECON,ioos:station:SCCF:18:1,2015-06-04T13:00:00Z,26.6955,-81.8138,1.41,0.66,1111122 
SCCF RECON,ioos:station:SCCF:18:1,2015-06-04T14:00:00Z,26.6955,-81.8138,1.41,0.63,1111122 
SCCF RECON,ioos:station:SCCF:18:1,2015-06-04T15:00:00Z,26.6955,-81.8138,1.43,0.66,1111122 
SCCF RECON,ioos:station:SCCF:18:1,2015-06-04T16:00:00Z,26.6955,-81.8138,1.46,0.64,1111122 
SCCF RECON,ioos:station:SCCF:18:1,2015-06-04T17:00:00Z,26.6955,-81.8138,1.47,0.84,1111122 
SCCF RECON,ioos:station:SCCF:18:1,2015-06-04T18:00:00Z,26.6955,-81.8138,1.47,1.15,1111122 
SCCF RECON,ioos:station:SCCF:18:1,2015-06-04T19:00:00Z,26.6955,-81.8138,1.5,1.16,1111122 
SCCF RECON,ioos:station:SCCF:18:1,2015-06-04T20:00:00Z,26.6955,-81.8138,1.53,1.4,1111122 
SCCF RECON,ioos:station:SCCF:18:1,2015-06-04T21:00:00Z,26.6955,-81.8138,1.54,1.41,1111122 
SCCF RECON,ioos:station:SCCF:18:1,2015-06-04T22:00:00Z,26.6955,-81.8138,1.569,1.04,1111122 
SCCF RECON,ioos:station:SCCF:18:1,2015-06-04T23:00:00Z,26.6955,-81.8138,1.619,0.83,1111122 
SCCF RECON,ioos:station:SCCF:18:1,2015-06-05T00:00:00Z,26.6955,-81.8138,1.63,0.84,1111122 
SCCF RECON,ioos:station:SCCF:18:1,2015-06-05T01:00:00Z,26.6955,-81.8138,1.62,0.86,1111122 
SCCF RECON,ioos:station:SCCF:18:1,2015-06-05T02:00:00Z,26.6955,-81.8138,1.6,0.82,1111122 
SCCF RECON,ioos:station:SCCF:18:1,2015-06-05T03:00:00Z,26.6955,-81.8138,1.58,0.78,1111122 
SCCF RECON,ioos:station:SCCF:18:1,2015-06-05T04:00:00Z,26.6955,-81.8138,1.55,0.74,1111122 
SCCF RECON,ioos:station:SCCF:18:1,2015-06-05T05:00:00Z,26.6955,-81.8138,1.528,0.72,1111122 
SCCF RECON,ioos:station:SCCF:18:1,2015-06-05T06:00:00Z,26.6955,-81.8138,1.49,0.7,1111122 
SCCF RECON,ioos:station:SCCF:18:1,2015-06-05T07:00:00Z,26.6955,-81.8138,1.47,0.8,1111122 
SCCF RECON,ioos:station:SCCF:18:1,2015-06-05T08:00:00Z,26.6955,-81.8138,1.45,0.99,1111122 
SCCF RECON,ioos:station:SCCF:18:1,2015-06-05T09:00:00Z,26.6955,-81.8138,1.42,0.82,1111122 
SCCF RECON,ioos:station:SCCF:18:1,2015-06-05T10:00:00Z,26.6955,-81.8138,1.41,1.0,1111122 
SCCF RECON,ioos:station:SCCF:18:1,2015-06-05T11:00:00Z,26.6955,-81.8138,1.414,0.96,1111122 
SCCF RECON,ioos:station:SCCF:18:1,2015-06-05T12:00:00Z,26.6955,-81.8138,1.42,1.02,1111122 
SCCF RECON,ioos:station:SCCF:18:1,2015-06-05T13:00:00Z,26.6955,-81.8138,1.43,0.94,1111122 
SCCF RECON,ioos:station:SCCF:18:1,2015-06-05T14:00:00Z,26.6955,-81.8138,1.42,0.73,1111122 
SCCF RECON,ioos:station:SCCF:18:1,2015-06-05T15:00:00Z,26.6955,-81.8138,1.43,0.73,1111122 
SCCF RECON,ioos:station:SCCF:18:1,2015-06-05T16:00:00Z,26.6955,-81.8138,1.449,0.74,1111122 
SCCF RECON,ioos:station:SCCF:18:1,2015-06-05T17:00:00Z,26.6955,-81.8138,1.475,0.74,1111122 
SCCF RECON,ioos:station:SCCF:18:1,2015-06-05T18:00:00Z,26.6955,-81.8138,1.48,1.14,1111122 
SCCF RECON,ioos:station:SCCF:18:1,2015-06-05T19:00:00Z,26.6955,-81.8138,1.48,1.1,1111122 
SCCF RECON,ioos:station:SCCF:18:1,2015-06-05T20:00:00Z,26.6955,-81.8138,1.501,1.29,1111122 
SCCF RECON,ioos:station:SCCF:18:1,2015-06-05T21:00:00Z,26.6955,-81.8138,1.51,1.46,1111122 
SCCF RECON,ioos:station:SCCF:18:1,2015-06-05T22:00:00Z,26.6955,-81.8138,1.52,1.29,1111122 
SCCF RECON,ioos:station:SCCF:18:1,2015-06-05T23:00:00Z,26.6955,-81.8138,1.54,1.09,1111122 
SCCF RECON,ioos:station:SCCF:18:1,2015-06-06T00:00:00Z,26.6955,-81.8138,1.55,0.94,1111122 
SCCF RECON,ioos:station:SCCF:18:1,2015-06-06T01:00:00Z,26.6955,-81.8138,1.58,1.03,1111122 
SCCF RECON,ioos:station:SCCF:18:1,2015-06-06T02:00:00Z,26.6955,-81.8138,1.569,1.24,1111122 
SCCF RECON,ioos:station:SCCF:18:1,2015-06-06T03:00:00Z,26.6955,-81.8138,1.53,0.93,1111122 
SCCF RECON,ioos:station:SCCF:18:1,2015-06-06T04:00:00Z,26.6955,-81.8138,1.51,0.84,1111122 
SCCF RECON,ioos:station:SCCF:18:1,2015-06-06T05:00:00Z,26.6955,-81.8138,1.48,0.81,1111122 
SCCF RECON,ioos:station:SCCF:18:1,2015-06-06T06:00:00Z,26.6955,-81.8138,1.46,0.96,1111122 
SCCF RECON,ioos:station:SCCF:18:1,2015-06-06T07:00:00Z,26.6955,-81.8138,1.41,0.85,1111122 
SCCF RECON,ioos:station:SCCF:18:1,2015-06-06T08:00:00Z,26.6955,-81.8138,1.4,0.9,1111122 
SCCF RECON,ioos:station:SCCF:18:1,2015-06-06T09:00:00Z,26.6955,-81.8138,1.386,1.36,1111122 
SCCF RECON,ioos:station:SCCF:18:1,2015-06-06T10:00:00Z,26.6955,-81.8138,1.381,1.09,1111122 
SCCF RECON,ioos:station:SCCF:18:1,2015-06-06T11:00:00Z,26.6955,-81.8138,1.379,1.3,1111122 
SCCF RECON,ioos:station:SCCF:18:1,2015-06-06T12:00:00Z,26.6955,-81.8138,1.38,1.57,1111122 
SCCF RECON,ioos:station:SCCF:18:1,2015-06-06T13:00:00Z,26.6955,-81.8138,1.38,1.41,1111122 
SCCF RECON,ioos:station:SCCF:18:1,2015-06-06T14:00:00Z,26.6955,-81.8138,1.4,1.18,1111122 
SCCF RECON,ioos:station:SCCF:18:1,2015-06-06T15:00:00Z,26.6955,-81.8138,1.4,0.82,1111122 
SCCF RECON,ioos:station:SCCF:18:1,2015-06-06T16:00:00Z,26.6955,-81.8138,1.4,0.71,1111122 
SCCF RECON,ioos:station:SCCF:18:1,2015-06-06T17:00:00Z,26.6955,-81.8138,1.43,0.87,1111122 
SCCF RECON,ioos:station:SCCF:18:1,2015-06-06T18:00:00Z,26.6955,-81.8138,1.46,1.32,1111122 
SCCF RECON,ioos:station:SCCF:18:1,2015-06-06T19:00:00Z,26.6955,-81.8138,1.47,1.12,1111122 
SCCF RECON,ioos:station:SCCF:18:1,2015-06-06T20:00:00Z,26.6955,-81.8138,1.464,1.63,1111122 
SCCF RECON,ioos:station:SCCF:18:1,2015-06-06T21:00:00Z,26.6955,-81.8138,1.48,1.66,1111122 
SCCF RECON,ioos:station:SCCF:18:1,2015-06-06T22:00:00Z,26.6955,-81.8138,1.491,1.66,1111122 
SCCF RECON,ioos:station:SCCF:18:1,2015-06-06T23:00:00Z,26.6955,-81.8138,1.53,1.24,1111122 
SCCF RECON,ioos:station:SCCF:18:1,2015-06-07T00:00:00Z,26.6955,-81.8138,1.54,1.15,1111122 
SCCF RECON,ioos:station:SCCF:18:1,2015-06-07T01:00:00Z,26.6955,-81.8138,1.54,0.97,1111122 
SCCF RECON,ioos:station:SCCF:18:1,2015-06-07T02:00:00Z,26.6955,-81.8138,1.55,0.91,1111122 
SCCF RECON,ioos:station:SCCF:18:1,2015-06-07T03:00:00Z,26.6955,-81.8138,1.53,0.91,1111122 
SCCF RECON,ioos:station:SCCF:18:1,2015-06-07T04:00:00Z,26.6955,-81.8138,1.52,0.86,1111122 
SCCF RECON,ioos:station:SCCF:18:1,2015-06-07T05:00:00Z,26.6955,-81.8138,1.5,0.84,1111122 
SCCF RECON,ioos:station:SCCF:18:1,2015-06-07T06:00:00Z,26.6955,-81.8138,1.47,0.82,1111122 
SCCF RECON,ioos:station:SCCF:18:1,2015-06-07T07:00:00Z,26.6955,-81.8138,1.44,0.8,1111122 
SCCF RECON,ioos:station:SCCF:18:1,2015-06-07T08:00:00Z,26.6955,-81.8138,1.43,0.82,1111122 
SCCF RECON,ioos:station:SCCF:18:1,2015-06-07T09:00:00Z,26.6955,-81.8138,1.41,0.89,1111122 
SCCF RECON,ioos:station:SCCF:18:1,2015-06-07T10:00:00Z,26.6955,-81.8138,1.39,1.21,1111122 
SCCF RECON,ioos:station:SCCF:18:1,2015-06-07T11:00:00Z,26.6955,-81.8138,1.38,1.38,1111122 
SCCF RECON,ioos:station:SCCF:18:1,2015-06-07T12:00:00Z,26.6955,-81.8138,1.372,1.21,1111122 
SCCF RECON,ioos:station:SCCF:18:1,2015-06-07T13:00:00Z,26.6955,-81.8138,1.38,1.17,1111122 
SCCF RECON,ioos:station:SCCF:18:1,2015-06-07T14:00:00Z,26.6955,-81.8138,1.384,1.21,1111122 
SCCF RECON,ioos:station:SCCF:18:1,2015-06-07T15:00:00Z,26.6955,-81.8138,1.41,0.96,1111122 
SCCF RECON,ioos:station:SCCF:18:1,2015-06-07T16:00:00Z,26.6955,-81.8138,1.41,0.83,1111122 
SCCF RECON,ioos:station:SCCF:18:1,2015-06-07T17:00:00Z,26.6955,-81.8138,1.46,0.91,1111122 
SCCF RECON,ioos:station:SCCF:18:1,2015-06-07T18:00:00Z,26.6955,-81.8138,1.45,0.86,1111122 
SCCF RECON,ioos:station:SCCF:18:1,2015-06-07T19:00:00Z,26.6955,-81.8138,1.46,0.83,1111122 
SCCF RECON,ioos:station:SCCF:18:1,2015-06-07T20:00:00Z,26.6955,-81.8138,1.49,1.29,1111122 
SCCF RECON,ioos:station:SCCF:18:1,2015-06-07T21:00:00Z,26.6955,-81.8138,1.47,2.22,1111122 
SCCF RECON,ioos:station:SCCF:18:1,2015-06-07T22:00:00Z,26.6955,-81.8138,1.459,1.88,1111122 
SCCF RECON,ioos:station:SCCF:18:1,2015-06-07T23:00:00Z,26.6955,-81.8138,1.47,1.55,1111122 
SCCF RECON,ioos:station:SCCF:18:1,2015-06-08T00:00:00Z,26.6955,-81.8138,1.48,1.67,1111122 
SCCF RECON,ioos:station:SCCF:18:1,2015-06-08T01:00:00Z,26.6955,-81.8138,1.48,1.43,1111122 
SCCF RECON,ioos:station:SCCF:18:1,2015-06-08T02:00:00Z,26.6955,-81.8138,1.5,1.2,1111122 
SCCF RECON,ioos:station:SCCF:18:1,2015-06-08T03:00:00Z,26.6955,-81.8138,1.509,0.84,1111122 
SCCF RECON,ioos:station:SCCF:18:1,2015-06-08T04:00:00Z,26.6955,-81.8138,1.49,0.94,1111122 
SCCF RECON,ioos:station:SCCF:18:1,2015-06-08T05:00:00Z,26.6955,-81.8138,1.451,0.98,1111122 
SCCF RECON,ioos:station:SCCF:18:1,2015-06-08T06:00:00Z,26.6955,-81.8138,1.48,1.02,1111122 
SCCF RECON,ioos:station:SCCF:18:1,2015-06-08T07:00:00Z,26.6955,-81.8138,1.44,0.95,1111122 
SCCF RECON,ioos:station:SCCF:18:1,2015-06-08T08:00:00Z,26.6955,-81.8138,1.416,0.97,1111122 
SCCF RECON,ioos:station:SCCF:18:1,2015-06-08T09:00:00Z,26.6955,-81.8138,1.4,0.98,1111122 
SCCF RECON,ioos:station:SCCF:18:1,2015-06-08T10:00:00Z,26.6955,-81.8138,1.39,1.54,1111122 
SCCF RECON,ioos:station:SCCF:18:1,2015-06-08T11:00:00Z,26.6955,-81.8138,1.38,1.61,1111122 
SCCF RECON,ioos:station:SCCF:18:1,2015-06-08T12:00:00Z,26.6955,-81.8138,1.35,1.37,1111122 
SCCF RECON,ioos:station:SCCF:18:1,2015-06-08T13:00:00Z,26.6955,-81.8138,1.367,1.45,1111122 
SCCF RECON,ioos:station:SCCF:18:1,2015-06-08T14:00:00Z,26.6955,-81.8138,1.387,1.42,1111122 
SCCF RECON,ioos:station:SCCF:18:1,2015-06-08T15:00:00Z,26.6955,-81.8138,1.418,1.28,1111122 
SCCF RECON,ioos:station:SCCF:18:1,2015-06-08T16:00:00Z,26.6955,-81.8138,1.42,0.89,1111122 
SCCF RECON,ioos:station:SCCF:18:1,2015-06-08T17:00:00Z,26.6955,-81.8138,1.423,0.87,1111122 
SCCF RECON,ioos:station:SCCF:18:1,2015-06-08T18:00:00Z,26.6955,-81.8138,1.43,1.1,1111122 
SCCF RECON,ioos:station:SCCF:18:1,2015-06-08T19:00:00Z,26.6955,-81.8138,1.457,1.23,1111122 
SCCF RECON,ioos:station:SCCF:18:1,2015-06-08T20:00:00Z,26.6955,-81.8138,1.45,1.1,1111122 
SCCF RECON,ioos:station:SCCF:18:1,2015-06-08T21:00:00Z,26.6955,-81.8138,1.49,1.16,1111122 
SCCF RECON,ioos:station:SCCF:18:1,2015-06-08T22:00:00Z,26.6955,-81.8138,1.52,1.62,1111122 
SCCF RECON,ioos:station:SCCF:18:1,2015-06-08T23:00:00Z,26.6955,-81.8138,1.54,1.31,1111122 
SCCF RECON,ioos:station:SCCF:18:1,2015-06-09T00:00:00Z,26.6955,-81.8138,1.53,1.53,1111122 
SCCF RECON,ioos:station:SCCF:18:1,2015-06-09T01:00:00Z,26.6955,-81.8138,1.53,1.46,1111122 
SCCF RECON,ioos:station:SCCF:18:1,2015-06-09T02:00:00Z,26.6955,-81.8138,1.53,1.35,1111122 
SCCF RECON,ioos:station:SCCF:18:1,2015-06-09T03:00:00Z,26.6955,-81.8138,1.54,1.26,1111122 
SCCF RECON,ioos:station:SCCF:18:1,2015-06-09T04:00:00Z,26.6955,-81.8138,1.54,1.24,1111122 
SCCF RECON,ioos:station:SCCF:18:1,2015-06-09T05:00:00Z,26.6955,-81.8138,1.557,1.32,1111122 
SCCF RECON,ioos:station:SCCF:18:1,2015-06-09T06:00:00Z,26.6955,-81.8138,1.53,1.3,1111122 
SCCF RECON,ioos:station:SCCF:18:1,2015-06-09T07:00:00Z,26.6955,-81.8138,1.49,1.19,1111122 
SCCF RECON,ioos:station:SCCF:18:1,2015-06-09T08:00:00Z,26.6955,-81.8138,1.48,1.22,1111122 
SCCF RECON,ioos:station:SCCF:18:1,2015-06-09T09:00:00Z,26.6955,-81.8138,1.45,1.25,1111122 
SCCF RECON,ioos:station:SCCF:18:1,2015-06-09T10:00:00Z,26.6955,-81.8138,1.44,1.28,1111122 
SCCF RECON,ioos:station:SCCF:18:1,2015-06-09T11:00:00Z,26.6955,-81.8138,1.4,1.56,1111122 
SCCF RECON,ioos:station:SCCF:18:1,2015-06-09T12:00:00Z,26.6955,-81.8138,1.4,1.52,1111122 
SCCF RECON,ioos:station:SCCF:18:1,2015-06-09T13:00:00Z,26.6955,-81.8138,1.4,1.59,1111122 
SCCF RECON,ioos:station:SCCF:18:1,2015-06-09T14:00:00Z,26.6955,-81.8138,1.41,1.72,1111122 
SCCF RECON,ioos:station:SCCF:18:1,2015-06-09T15:00:00Z,26.6955,-81.8138,1.42,1.66,1111122 
SCCF RECON,ioos:station:SCCF:18:1,2015-06-09T16:00:00Z,26.6955,-81.8138,1.45,1.47,1111122 
SCCF RECON,ioos:station:SCCF:18:1,2015-06-09T17:00:00Z,26.6955,-81.8138,1.46,1.23,1111122 
SCCF RECON,ioos:station:SCCF:18:1,2015-06-09T18:00:00Z,26.6955,-81.8138,1.472,1.05,1111122 
SCCF RECON,ioos:station:SCCF:18:1,2015-06-09T19:00:00Z,26.6955,-81.8138,1.46,1.57,1111122 
SCCF RECON,ioos:station:SCCF:18:1,2015-06-09T20:00:00Z,26.6955,-81.8138,1.48,1.51,1111122 
SCCF RECON,ioos:station:SCCF:18:1,2015-06-09T21:00:00Z,26.6955,-81.8138,1.45,1.51,1111122 
SCCF RECON,ioos:station:SCCF:18:1,2015-06-09T22:00:00Z,26.6955,-81.8138,1.44,1.4,1111122 
SCCF RECON,ioos:station:SCCF:18:1,2015-06-09T23:00:00Z,26.6955,-81.8138,1.46,1.44,1111122 
SCCF RECON,ioos:station:SCCF:18:1,2015-06-10T00:00:00Z,26.6955,-81.8138,1.43,1.72,1111122 
SCCF RECON,ioos:station:SCCF:18:1,2015-06-10T01:00:00Z,26.6955,-81.8138,1.43,1.68,1111122 
SCCF RECON,ioos:station:SCCF:18:1,2015-06-10T02:00:00Z,26.6955,-81.8138,1.43,1.59,1111122 
SCCF RECON,ioos:station:SCCF:18:1,2015-06-10T03:00:00Z,26.6955,-81.8138,1.434,1.57,1111122 
SCCF RECON,ioos:station:SCCF:18:1,2015-06-10T04:00:00Z,26.6955,-81.8138,1.45,1.54,1111122 
SCCF RECON,ioos:station:SCCF:18:1,2015-06-10T05:00:00Z,26.6955,-81.8138,1.45,1.37,1111122 
SCCF RECON,ioos:station:SCCF:18:1,2015-06-10T06:00:00Z,26.6955,-81.8138,1.47,1.29,1111122 
SCCF RECON,ioos:station:SCCF:18:1,2015-06-10T07:00:00Z,26.6955,-81.8138,1.471,1.34,1111122 
SCCF RECON,ioos:station:SCCF:18:1,2015-06-10T08:00:00Z,26.6955,-81.8138,1.46,1.3,1111122 
SCCF RECON,ioos:station:SCCF:18:1,2015-06-10T09:00:00Z,26.6955,-81.8138,1.45,1.36,1111122 
SCCF RECON,ioos:station:SCCF:18:1,2015-06-10T10:00:00Z,26.6955,-81.8138,1.457,1.38,1111122 
SCCF RECON,ioos:station:SCCF:18:1,2015-06-10T11:00:00Z,26.6955,-81.8138,1.45,1.38,1111122 
SCCF RECON,ioos:station:SCCF:18:1,2015-06-10T12:00:00Z,26.6955,-81.8138,1.421,1.6,1111122 
SCCF RECON,ioos:station:SCCF:18:1,2015-06-10T13:00:00Z,26.6955,-81.8138,1.41,1.58,1111122 
SCCF RECON,ioos:station:SCCF:18:1,2015-06-10T14:00:00Z,26.6955,-81.8138,1.44,1.54,1111122 
SCCF RECON,ioos:station:SCCF:18:1,2015-06-10T15:00:00Z,26.6955,-81.8138,1.45,1.61,1111122 
SCCF RECON,ioos:station:SCCF:18:1,2015-06-10T16:00:00Z,26.6955,-81.8138,1.492,1.67,1111122 
SCCF RECON,ioos:station:SCCF:18:1,2015-06-10T17:00:00Z,26.6955,-81.8138,1.5,1.74,1111122 
SCCF RECON,ioos:station:SCCF:18:1,2015-06-10T18:00:00Z,26.6955,-81.8138,1.55,1.55,1111122 
SCCF RECON,ioos:station:SCCF:18:1,2015-06-10T19:00:00Z,26.6955,-81.8138,1.58,1.46,1111122 
SCCF RECON,ioos:station:SCCF:18:1,2015-06-10T20:00:00Z,26.6955,-81.8138,1.59,1.81,1111122 
SCCF RECON,ioos:station:SCCF:18:1,2015-06-10T21:00:00Z,26.6955,-81.8138,1.58,1.56,1111122 
SCCF RECON,ioos:station:SCCF:18:1,2015-06-10T22:00:00Z,26.6955,-81.8138,1.56,1.6,1111122 
SCCF RECON,ioos:station:SCCF:18:1,2015-06-10T23:00:00Z,26.6955,-81.8138,1.551,1.69,1111122 
SCCF RECON,ioos:station:SCCF:18:1,2015-06-11T00:00:00Z,26.6955,-81.8138,1.56,1.49,1111122 
SCCF RECON,ioos:station:SCCF:18:1,2015-06-11T01:00:00Z,26.6955,-81.8138,1.55,1.48,1111122 
SCCF RECON,ioos:station:SCCF:18:1,2015-06-11T02:00:00Z,26.6955,-81.8138,1.55,1.53,1111122 
SCCF RECON,ioos:station:SCCF:18:1,2015-06-11T03:00:00Z,26.6955,-81.8138,1.523,1.67,1111122 
SCCF RECON,ioos:station:SCCF:18:1,2015-06-11T04:00:00Z,26.6955,-81.8138,1.48,1.41,1111122 
SCCF RECON,ioos:station:SCCF:18:1,2015-06-11T05:00:00Z,26.6955,-81.8138,1.5,1.47,1111122 
SCCF RECON,ioos:station:SCCF:18:1,2015-06-11T06:00:00Z,26.6955,-81.8138,1.54,1.46,1111122 
SCCF RECON,ioos:station:SCCF:18:1,2015-06-11T07:00:00Z,26.6955,-81.8138,1.53,1.51,1111122 
SCCF RECON,ioos:station:SCCF:18:1,2015-06-11T08:00:00Z,26.6955,-81.8138,1.514,1.49,1111122 
SCCF RECON,ioos:station:SCCF:18:1,2015-06-11T09:00:00Z,26.6955,-81.8138,1.55,1.57,1111122 
SCCF RECON,ioos:station:SCCF:18:1,2015-06-11T10:00:00Z,26.6955,-81.8138,1.53,1.55,1111122 
SCCF RECON,ioos:station:SCCF:18:1,2015-06-11T11:00:00Z,26.6955,-81.8138,1.49,1.49,1111122 
SCCF RECON,ioos:station:SCCF:18:1,2015-06-11T12:00:00Z,26.6955,-81.8138,1.462,1.58,1111122 
SCCF RECON,ioos:station:SCCF:18:1,2015-06-11T13:00:00Z,26.6955,-81.8138,1.46,1.6,1111122 
SCCF RECON,ioos:station:SCCF:18:1,2015-06-11T14:00:00Z,26.6955,-81.8138,1.47,1.75,1111122 
SCCF RECON,ioos:station:SCCF:18:1,2015-06-11T15:00:00Z,26.6955,-81.8138,1.47,1.69,1111122 
SCCF RECON,ioos:station:SCCF:18:1,2015-06-11T16:00:00Z,26.6955,-81.8138,1.49,1.69,1111122 
SCCF RECON,ioos:station:SCCF:18:1,2015-06-11T17:00:00Z,26.6955,-81.8138,1.51,1.58,1111122 
SCCF RECON,ioos:station:SCCF:18:1,2015-06-11T18:00:00Z,26.6955,-81.8138,1.53,1.52,1111122 
SCCF RECON,ioos:station:SCCF:18:1,2015-06-11T19:00:00Z,26.6955,-81.8138,1.54,1.5,1111122 
SCCF RECON,ioos:station:SCCF:18:1,2015-06-11T20:00:00Z,26.6955,-81.8138,1.58,1.65,1111122 
SCCF RECON,ioos:station:SCCF:18:1,2015-06-11T21:00:00Z,26.6955,-81.8138,1.581,1.52,1111122 